www.pogodaiklimat.ru

Погода и климат >> Архив погоды >> Россия >> Астраханская область >> Харабали


ПОГОДА в Харабали

  • Прогноз погоды в Харабали
  • Монитор погоды в Харабали

АРХИВ ПОГОДЫ в Харабали

Время (UTC), дата Ветер
(напр.,м/с)
 
Видим.   Явления Облачность Т
(С)
Тd
(С)
f
(%)
Тe
(С)
Тes
(С)
Комфортность P
(гПа)
Po
(гПа)
Тmin
(С)
Tmax
(С)
R
(мм)
R24
(мм)
S
(см)
15 19.03 С 4
{11}
20 км ясно +7.5 -2.7 48 +5 +5 1026.7 1028.7 +9.5
18 19.03 С 2 20 км ясно +2.8 -1.5 73 0 0 1028.1 1030.1
21 19.03 С 2 20 км ясно -0.1 -3.3 79 -4 -4 1027.7 1029.8
00 20.03 С 3 20 км ясно -2.1 -4.0 87 -7 -7 1027.1 1029.2
03 20.03 С 3 20 км ясно -3.1 -4.6 89 -8 -8 1027.0 1029.1 -3.1
06 20.03 С 3 20 км ясно +3.5 -2.4 65 0 +5 1027.5 1029.5
09 20.03 С 4 20 км ясно +8.5 -2.1 47 +6 +13 1026.1 1028.1
12 20.03 С 4 20 км 3/0
[Ci fib]
+11.2 -2.1 39 +9 +13 1024.6 1026.6
15 20.03 С 3 20 км ясно +9.7 -3.4 40 +8 +8 1024.3 1026.3 +11.3
18 20.03 С 3 20 км ясно +4.3 -3.1 59 +1 +1 1025.0 1027.0
21 20.03 С 3 20 км ясно +1.2 -3.0 74 -3 -3 1024.5 1026.5
00 21.03 С 2 20 км ясно -1.4 -4.0 82 -5 -5 1023.9 1026.0
03 21.03 штиль 0 20 км ясно -3.1 -5.0 87 -4 -4 1023.6 1025.7 -3.1
06 21.03 СЗ 1 20 км 1/0
[Ci fib]
+5.1 -2.1 60 +4 +11 1023.8 1025.8 -3.2
09 21.03 С 1 20 км 1/0
[Ci fib]
+11.0 -5.1 32 +11 +24 опасность
простуды
1023.1 1025.0
12 21.03 В 1 20 км ясно +12.5 -2.1 36 +13 +19 1021.2 1023.2
15 21.03 СВ 1 20 км 3/0
[Ci fib]
+11.6 -1.9 39 +12 +12 1020.3 1022.2 +13.7
18 21.03 В 1 20 км ясно +3.7 0.0 77 +2 +2 1020.7 1022.7
21 21.03 ЮВ 2 20 км ясно +2.4 -2.1 72 -1 -1 1019.6 1021.6
00 22.03 В 2 20 км 8/8 600 м
[Sc]
+3.3 -3.5 61 +1 +1 1018.1 1020.1
03 22.03 З 2 10 км слаб. дождь 10/9 300 м
[Frnb As op]
+5.3 +2.9 84 +3 +3 1017.8 1019.8 +1.0 0.3
06 22.03 З 4 20 км {дождь} 10/9 300 м
[Frnb As op]
+4.1 +1.8 85 -0 -0 1019.3 1021.3
09 22.03 З 4 20 км 10/10 300 м
[Frnb]
+5.7 +1.0 72 +2 +2 1019.0 1021.0
12 22.03 ЮЗ 3 20 км 6/6 600 м
[Cb calv]
+9.6 -2.3 43 +8 +10 1017.2 1019.1
15 22.03 Ю 1 20 км {ливн. осадки} 6/6 600 м
[Cb calv]
+5.8 +1.2 72 +5 +5 1016.4 1018.4 +9.6 0.5
18 22.03 ЮЗ 3 20 км {ливн. осадки} 3/3 600 м
[Sc diur, vesp]
+2.8 +0.2 83 -1 -1 1016.5 1018.5
21 22.03 Ю 2 20 км 10/10 600 м
[Sc]
+1.5 -0.5 87 -2 -2 1015.6 1017.6
00 23.03 Ю 2 20 км 3/3 600 м
[Sc]
+0.3 -1.4 88 -3 -3 1014.1 1016.2
03 23.03 ЮВ 2 20 км 10/10 600 м
[Sc]
+1.0 -1.8 82 -2 -2 1012.8 1014.8 +0.1
06 23.03 Ю 4 20 км в посл. час дождь 10/9 300 м
[Frnb As op]
+4.1 -1.1 69 0 0 1012.4 1014.4
09 23.03 Ю 4 20 км в посл. час дождь 10/9 300 м
[Frnb As op]
+6.6 +3.1 78 +3 +3 1012.7 1014.7
12 23.03 Ю 4
{10}
20 км {дождь} 8/4 600 м
[Cb calv Ci]
+8.7 -0.5 52 +6 +8 1013.5 1015.5
15 23.03 З 1 20 км 10/10 600 м
[Cb cap]
+7.8 +1.1 63 +7 +7 1014.7 1016.6 +9.4 0.4
18 23.03 ЮВ 1 20 км 10/10 600 м
[Cb cap]
+5.3 +2.5 82 +4 +4 1016.0 1018.0
21 23.03 З 1 10 км слаб. ливневой дождь 10/10 600 м
[Cb cap]
+4.6 +3.0 89 +3 +3 1016.6 1018.6
00 24.03 С 2 20 км в посл. час ливневой дождь 10/10 600 м
[Cb cap]
+3.6 +2.2 91 +1 +1 1015.4 1017.4
03 24.03 З 1 10 км слаб. дождь 10/9 300 м
[Frnb As op]
+3.3 +2.2 92 +2 +2 1015.6 1017.6 +3.3 5
06 24.03 СЗ 1 10 км слаб. дождь 10/9 300 м
[Frnb As op]
+3.8 +2.8 93 +2 +2 1015.6 1017.6 +3.1
09 24.03 З 2 10 км слаб. дождь 10/9 300 м
[Frnb As op]
+3.7 +2.3 91 +1 +1 1014.4 1016.4
12 24.03 З 2 20 км {дождь} 10/8 300 м
[Frnb As op]
+3.7 +1.6 86 +1 +1 1013.7 1015.7
15 24.03 Ю 1 20 км 10/10 600 м
[Cb calv]
+4.0 +1.7 85 +3 +3 1012.5 1014.5 +4.5 4
18 24.03 Ю 2 20 км 6/6 600 м
[Sc]
+3.3 +1.2 86 0 0 1012.1 1014.1
21 24.03 ЮЗ 3 20 км ясно +0.8 -1.3 86 -4 -4 1011.3 1013.3
00 25.03 ЮЗ 4 20 км 9/9 600 м
[Sc]
+1.0 -0.8 88 -4 -4 1011.1 1013.1
03 25.03 З 5 10 км слаб. дождь 10/9 300 м
[Frnb As op]
+2.4 +0.4 87 -3 -3 1011.9 1013.9 +0.6 0.1
06 25.03 З 5
{11}
20 км {дождь} 10/10 300 м
[Frnb]
+2.7 -0.5 79 -3 -3 1014.1 1016.1
09 25.03 ЮЗ 5 20 км 10/10 600 м
[Cb calv]
+7.4 -0.7 56 +4 +4 1013.9 1015.9
12 25.03 ЮЗ 4
{10}
20 км 8/8 600 м
[Cb calv]
+9.2 -1.1 48 +7 +7 1014.0 1016.0
15 25.03 ЮЗ 2
{10}
20 км {ливн. осадки} 8/3 600 м
[Cb calv Ci fib]
+8.3 -1.4 50 +7 +7 1014.8 1016.8 +10.3 0.0
18 25.03 ЮВ 1 20 км {ливн. осадки} 6/0
[Ci fib]
+1.6 -0.8 84 -0 -0 1016.5 1018.5
21 25.03 ЮВ 1 20 км ясно -0.4 -2.0 89 -3 -3 1017.7 1019.7
00 26.03 ЮВ 1 4000 м дымка ясно -1.3 -2.3 93 -4 -4 1018.5 1020.5
03 26.03 В 1 4000 м дымка ясно -1.9 -2.9 93 -4 -4 1019.4 1021.4 -2.1
06 26.03 Ю 2 20 км ясно +7.6 +1.0 63 +6 +12 1020.4 1022.4
09 26.03 Ю 5 20 км 3/3 600 м
[Cu hum]
+12.3 -4.0 32 +10 +15 1019.4 1021.3

 

Местоположение метеостанции Харабали (Астраханская область, Россия): широта 47.40 долгота 47.25 высота над уровнем моря -17 м.

В архиве по умолчанию представлена погода в Харабали за последнюю неделю. Архивные данные за месяц целиком и за предыдущие месяцы, начиная с января 2011 года, Вы можете получить, выбрав интересующий диапазон дат из раскрывающегося списка и нажав кнопку "Ввод!".


*Определитесь, кто Вы:
робот инопланетянин человек

Внимание! Время в таблицах - всемирное. Для получения местного времени необходимо прибавить поправку, которая равна 4 ч.

Смотрите также архив погоды в соседних городах и на ближайших метеорологических станциях:

Погода в Досанге (Астраханская область, Россия) (74 км)
Погода в Юсте (Калмыкия, Россия) (76 км)
Погода в Верхнем Баскунчаке (Астраханская область, Россия) (99 км)
Погода в Черный Яр (Астраханская область, Россия) (113 км)
Погода в Жанауштогане (Атырауская область, Казахстан) (129 км)
Погода в Астрахани (Астраханская область, Россия) (136 км)
Погода в Утте (Калмыкия, Россия) (148 км)
Погода в Урде (Западно-Казахстанская область, Казахстан) (153 км)
Погода в Зеленге (Астраханская область, Россия) (171 км)
Погода в Ганюшкино (Атырауская область, Казахстан) (177 км)

Пояснения к столбцам:

Ветер - указаны скорость ветра в м/с - средняя за 10 мин, порывы в срок и между сроками (в фигурных скобках) и направление, откуда дует ветер: С - северный, СВ - северо-восточный, В - восточный, ЮВ - юго-восточный, Ю - южный, ЮЗ - юго-западный, З - западный, СЗ - северо-западный.
Видимость - горизонтальная дальность видимости в метрах или километрах. При видимости от 1 до 10 км при отсутствии осадков обычно наблюдается дымка, при ухудшении видимости до 1 км и менее - туман. В сухую погоду видимость может ухудшаться дымом, пылью или мглою.
Явления - указаны атмосферные явления, наблюдавшиеся в срок или в последний час перед сроком; фигурными скобками обозначены явления, наблюдавшиеся между сроками (за 1-3 часа до срока); квадратными скобками обозначены град или гололедные отложения с указанием их диаметра в мм.
Облачность - указаны через наклонную черту общая и нижняя облачность в баллах и высота нижней границы облаков в метрах; квадратными скобками обозначены формы облаков: Ci - перистые, Cs - перисто-слоистые, Cc - перисто-кучевые, Ac - высококучевые, As - высокослоистые, Sc - слоисто-кучевые, Ns - слоисто-дождевые, Cu - кучевые, Cb - кучево-дождевые. Подробнее классификацию облаков см. в Атласе облаков (PDF).
T - Температура воздуха - температура, измеренная на высоте 2 м над землей.
Td - Температура точки росы - температура, при понижении до которой содержащийся в воздухе водяной пар достигнет насыщения.
f - Относительная влажность воздуха - влажноcть воздуха, измеренная на высоте 2 м над землей.
Te - Эффективная температура - температура, которую ощущает одетый по сезону человек в тени. Характеристика душности погоды. При расчете учитывается влияние влажности воздуха и скорости ветра на теплоощущения человека.
Tes - Эффективная температура на солнце - температура, которую ощущает человек, с поправкой на солнечный нагрев. Характеристика знойности погоды. Зависит от высоты солнца над горизонтом, облачности и скорости ветра. Ночью, в пасмурную погоду, а также при ветре 12 м/с и более поправка равна нулю.
P - Атмосферное давление - приведенное к уровню моря атмосферное давление.
Po - Атмосферное давление - измеренное на уровне метеостанции атмосферное давление.
Tmin - Минимальная температура - минимум температуры воздуха на высоте 2 м над землей.
Tmax - Максимальная температура - максимум температуры воздуха на высоте 2 м над землей.
R - Количество осадков - Количество выпавших осадков за период времени, мм. При наведении курсора мыши на число - период времени, за который выпало указанное количество осадков.
R24 - Количество осадков - Количество выпавших осадков за 24 часа, мм.
S - Снежный покров - Высота снежного покрова, см. При наведении курсора мыши на число - состояние снежного покрова и степень покрытия местности в баллах.